Weather in Komarovsky

Russia / Orenburg Oblast     51°01′48″N   59°52′08″E
temp.,
°C
wind,
m/s
gust,
m/s
humid.,
%
clouds,
%
prec.,
mm/h
press.,
hPa
HPBL,
m
1 march, mon
mon123:00−9wsw7119499 1.8 1008303
02:00−12w61096100 0.1 1011251
05:00−14w5996100 0.3 1013244
08:00−15w5796100 0.3 1015221
11:00−14w469599 0.5 1016207
14:00−13w459499 0.2 1017262
17:00−12w469499 0.3 1018331
20:00−14wsw479796 0.1 1019185
2 march, tue
tue223:00−16w489794 0.3 1020193
02:00−16wsw589795 0.1 1019223
05:00−17w5119797 0.3 1019268
08:00−19w61199100 0.1 1020251
11:00−19w7109697 0.1 1020308
14:00−16wsw7109399 0.0 1019402
17:00−15wsw6119295 0.0 1018396
20:00−15sw7149196 0.0 1017347
3 march, wed
wed323:00−12sw8169498 0.1 1015452
02:00−8sw91694100 0.6 1013595
05:00−6sw101794100 1.9 1011693
08:00−4sw101794100 1.4 1009835
11:00−3sw111595100 2.4 1008902
14:00−2sw101496100 1.4 1007927
17:00−2sw101496100 2.8 1006962
20:00−2sw81397100 1.1 1005745
4 march, thu
thu423:00−2sw81297100 2.3 1004624
02:00−3sw61196100 0.8 1003441
05:00−4sw6119698 1.4 1004393
08:00−5wnw5996100 0.8 1005334
11:00−8wnw699594 0.8 1007334
14:00−7w8119099 0.0 1009671
17:00−7w71289100 0.1 1012642
20:00−12wsw6129593 0.0 1015279
5 march, fri
fri523:00−13sw6139571 0.0 1017263
02:00−10sw7159395 0.1 1016454
05:00−8sw10189098 0.1 1015691
08:00−5sw112088100 0.1 1014831
11:00−3sw132086100 0.1 1014971
14:00−2sw131982100 0.0 10141070
17:00−2sw12198399 0.0 10151057
20:00−2wsw111791100 0.2 1016912